Location: Moonridge Observatory
(39.2268°N, 77.7914°W)
Time: 22:25:47
(UTC-04:00)

CZ-2C R/B - Visible Passes

Search period start: 01 August 2014 00:00
Search period end: 11 August 2014 00:00
Orbit: 704 x 911 km, 98.1° (Epoch: 31 July)

Date Brightness Start Highest point End Pass type
(mag) Time Alt. Az. Time Alt. Az. Time Alt. Az.
01 Aug 5.7 02:57:53 10° E 02:59:57 13° ENE 03:02:01 10° NE visible
01 Aug 2.8 04:34:18 10° S 04:39:19 71° WSW 04:44:08 10° NNW visible
02 Aug 3.2 04:09:53 10° SSE 04:14:50 66° ENE 04:19:37 10° N visible
03 Aug 4.2 03:45:53 10° SE 03:50:26 38° ENE 03:54:51 10° N visible
03 Aug 4.1 05:26:40 10° SW 05:30:25 21° W 05:34:06 10° NW visible
04 Aug 5.1 03:22:21 10° ESE 03:26:06 22° ENE 03:29:47 10° NNE visible
04 Aug 3.4 05:01:26 11° SSW 05:05:48 37° W 05:10:15 10° NNW visible
05 Aug 5.7 02:59:38 10° E 03:01:52 13° ENE 03:04:05 10° NE visible
05 Aug 2.8 04:36:50 13° S 04:41:15 66° WSW 04:46:00 10° NNW visible
06 Aug 3.1 04:12:14 12° SSE 04:16:46 71° ENE 04:21:31 10° N visible
07 Aug 4.1 03:47:49 10° SE 03:52:21 40° ENE 03:56:46 10° N visible
07 Aug 4.2 05:28:53 10° SW 05:32:23 20° W 05:35:50 10° NW visible
08 Aug 5.0 03:24:13 10° ESE 03:28:01 23° ENE 03:31:45 10° NNE visible
08 Aug 3.5 05:04:07 14° SSW 05:07:45 34° W 05:12:04 10° NNW visible
09 Aug 5.6 03:01:22 10° E 03:03:46 14° ENE 03:06:09 10° NNE visible
09 Aug 2.8 04:39:31 17° S 04:43:10 61° W 04:47:53 10° NNW visible
10 Aug 2.9 04:14:54 17° SSE 04:18:40 76° ENE 04:23:25 10° N visible
